�������l�o���
Date,Time,MP-1(��Sv/h),MP-2(��Sv/h),MP-3(��Sv/h),MP-4(��Sv/h),MP-5(��Sv/h),MP-6(��Sv/h),MP-7(��Sv/h),����,����(m/s),���J
2016/10/04,00:00,0.387,0.235,0.408,0.375,0.361,0.190,0.163,��쐼,4.6,��
2016/10/04,00:10,0.384,0.235,0.406,0.373,0.365,0.192,0.165,�쐼,3.4,��
2016/10/04,00:20,0.385,0.236,0.406,0.375,0.364,0.191,0.164,���쐼,3.3,��
2016/10/04,00:30,0.386,0.233,0.407,0.375,0.359,0.191,0.165,���쐼,3.6,��
2016/10/04,00:40,0.383,0.236,0.404,0.372,0.364,0.192,0.164,��,4.2,��
2016/10/04,00:50,0.386,0.234,0.408,0.376,0.360,0.191,0.164,���쐼,3.3,��
2016/10/04,01:00,0.383,0.235,0.404,0.373,0.363,0.192,0.165,���쐼,3.2,��
2016/10/04,01:10,0.387,0.235,0.406,0.374,0.364,0.191,0.163,�쐼,3.6,��
2016/10/04,01:20,0.386,0.235,0.407,0.375,0.361,0.192,0.165,�쐼,3.8,��
2016/10/04,01:30,0.383,0.236,0.403,0.372,0.363,0.192,0.165,��쐼,4.7,��
2016/10/04,01:40,0.386,0.235,0.406,0.375,0.361,0.190,0.164,��쐼,3.4,��
2016/10/04,01:50,0.384,0.237,0.407,0.372,0.362,0.192,0.165,��쐼,3.7,��
2016/10/04,02:00,0.384,0.236,0.403,0.372,0.363,0.192,0.164,��쐼,4.8,��
2016/10/04,02:10,0.385,0.234,0.408,0.377,0.360,0.192,0.165,��쐼,3.3,��
2016/10/04,02:20,0.382,0.235,0.404,0.372,0.364,0.193,0.164,��쐼,3.6,��
2016/10/04,02:30,0.386,0.234,0.405,0.375,0.363,0.191,0.163,��쐼,5.1,��
2016/10/04,02:40,0.384,0.236,0.408,0.377,0.361,0.192,0.165,��쐼,4.6,��
2016/10/04,02:50,0.383,0.235,0.405,0.372,0.364,0.191,0.164,��,4.7,��
2016/10/04,03:00,0.386,0.236,0.407,0.375,0.361,0.191,0.164,��쐼,4.5,��
2016/10/04,03:10,0.383,0.235,0.407,0.374,0.363,0.192,0.163,��쐼,4.1,��
2016/10/04,03:20,0.386,0.234,0.402,0.374,0.365,0.192,0.163,��쐼,3.8,��
2016/10/04,03:30,0.385,0.236,0.408,0.376,0.361,0.192,0.165,��쐼,5.1,��
2016/10/04,03:40,0.384,0.236,0.407,0.373,0.364,0.192,0.165,��쐼,5.9,��
2016/10/04,03:50,0.387,0.234,0.405,0.375,0.362,0.191,0.164,���쐼,5.6,��
2016/10/04,04:00,0.385,0.236,0.409,0.374,0.359,0.191,0.164,�쐼,3.6,��
2016/10/04,04:10,0.385,0.234,0.405,0.371,0.363,0.191,0.163,���쐼,2.5,��
2016/10/04,04:20,0.384,0.235,0.405,0.376,0.362,0.191,0.164,�쐼,2.8,��
2016/10/04,04:30,0.382,0.235,0.408,0.375,0.360,0.192,0.163,�k,1.3,��
2016/10/04,04:40,0.386,0.234,0.405,0.372,0.364,0.192,0.164,��,2.2,��
2016/10/04,04:50,0.383,0.235,0.405,0.375,0.362,0.192,0.163,��,2.8,��
2016/10/04,05:00,0.384,0.236,0.407,0.372,0.361,0.190,0.162,�k��,4.2,��
2016/10/04,05:10,0.386,0.233,0.403,0.373,0.364,0.191,0.163,���k��,3.3,��
2016/10/04,05:20,0.382,0.235,0.408,0.374,0.361,0.192,0.164,��,3.1,��
2016/10/04,05:30,0.385,0.235,0.406,0.372,0.363,0.191,0.164,��,1.6,��
2016/10/04,05:40,0.386,0.234,0.404,0.376,0.363,0.192,0.164,���쐼,3.1,��
2016/10/04,05:50,0.384,0.235,0.406,0.375,0.360,0.190,0.162,��,2.7,��
2016/10/04,06:00,0.386,0.233,0.405,0.371,0.365,0.191,0.164,���쐼,1.6,��
2016/10/04,06:10,0.385,0.236,0.405,0.375,0.360,0.192,0.163,���k��,2.3,��
2016/10/04,06:20,0.383,0.235,0.407,0.372,0.362,0.191,0.163,���k��,3.9,��
2016/10/04,06:30,0.385,0.235,0.403,0.374,0.362,0.191,0.163,���k��,4.7,��
2016/10/04,06:40,0.383,0.235,0.407,0.376,0.358,0.191,0.163,���k��,4.7,��
2016/10/04,06:50,0.382,0.234,0.408,0.373,0.359,0.190,0.165,�k��,4.5,��
2016/10/04,07:00,0.387,0.234,0.403,0.373,0.363,0.191,0.164,�k��,5.6,��
2016/10/04,07:10,0.385,0.235,0.407,0.374,0.361,0.190,0.162,�k��,5.6,��
2016/10/04,07:20,0.382,0.234,0.408,0.372,0.358,0.191,0.162,�k�k��,6.4,��
2016/10/04,07:30,0.382,0.232,0.403,0.371,0.360,0.190,0.163,�k��,5.5,��
2016/10/04,07:40,0.389,0.233,0.403,0.375,0.364,0.191,0.164,�k��,7.8,��
2016/10/04,07:50,0.383,0.235,0.408,0.376,0.362,0.190,0.163,�k�k��,5.3,��
2016/10/04,08:00,0.383,0.235,0.405,0.372,0.361,0.192,0.164,��,2.4,��
2016/10/04,08:10,0.381,0.235,0.404,0.370,0.359,0.191,0.164,��,2.9,��
2016/10/04,08:20,0.383,0.234,0.401,0.369,0.357,0.191,0.163,��,1.9,��
2016/10/04,08:30,0.388,0.235,0.408,0.370,0.359,0.191,0.164,�k,2.9,��
2016/10/04,08:40,0.387,0.234,0.408,0.370,0.357,0.191,0.163,�k,4.1,��
2016/10/04,08:50,0.384,0.234,0.406,0.372,0.360,0.193,0.164,�k�k��,2.9,��
2016/10/04,09:00,0.383,0.234,0.403,0.372,0.359,0.191,0.165,�k��,1.9,��
2016/10/04,09:10,0.382,0.235,0.404,0.372,0.360,0.191,0.164,���k��,2.2,��
2016/10/04,09:20,0.383,0.236,0.408,0.371,0.361,0.191,0.166,��,2.8,��
2016/10/04,09:30,0.383,0.236,0.408,0.374,0.361,0.192,0.164,��,2.9,��
2016/10/04,09:40,0.384,0.238,0.407,0.375,0.363,0.191,0.164,���k��,3.3,��
2016/10/04,09:50,0.384,0.235,0.406,0.375,0.363,0.193,0.164,���k��,3.0,��
2016/10/04,10:00,0.384,0.236,0.404,0.376,0.364,0.192,0.165,���쓌,3.1,��
2016/10/04,10:10,0.385,0.238,0.403,0.375,0.365,0.192,0.165,���쓌,2.7,��
2016/10/04,10:20,0.387,0.238,0.402,0.376,0.367,0.193,0.164,��,4.6,��
2016/10/04,10:30,0.385,0.237,0.404,0.377,0.362,0.191,0.165,��,4.4,��
2016/10/04,10:40,0.386,0.236,0.405,0.377,0.363,0.192,0.165,��,3.2,��
2016/10/04,10:50,0.388,0.237,0.403,0.375,0.363,0.191,0.165,���k��,2.7,��
2016/10/04,11:00,0.387,0.236,0.403,0.377,0.365,0.192,0.166,���k��,5.1,��
2016/10/04,11:10,0.388,0.236,0.405,0.377,0.364,0.191,0.165,���k��,6.6,��
2016/10/04,11:20,0.386,0.236,0.406,0.375,0.362,0.193,0.165,���k��,7.5,��
2016/10/04,11:30,0.385,0.235,0.405,0.376,0.362,0.192,0.164,���k��,9.3,��
2016/10/04,11:40,0.384,0.235,0.405,0.373,0.360,0.192,0.163,���k��,8.7,��
2016/10/04,11:50,0.385,0.235,0.406,0.373,0.361,0.192,0.164,��,9.3,��
2016/10/04,12:00,0.384,0.234,0.405,0.374,0.361,0.191,0.164,���k��,5.9,��
2016/10/04,12:10,0.384,0.236,0.405,0.374,0.361,0.193,0.164,��,6.7,��
2016/10/04,12:20,0.383,0.236,0.405,0.374,0.362,0.192,0.165,���k��,5.6,��
2016/10/04,12:30,0.385,0.237,0.405,0.373,0.361,0.192,0.165,���k��,6.9,��
2016/10/04,12:40,0.385,0.236,0.406,0.374,0.363,0.193,0.165,���k��,5.9,��
2016/10/04,12:50,0.384,0.236,0.406,0.375,0.363,0.192,0.164,���k��,4.7,��
2016/10/04,13:00,0.387,0.236,0.406,0.376,0.363,0.192,0.164,�k��,3.9,��
2016/10/04,13:10,0.384,0.235,0.406,0.372,0.363,0.191,0.164,�k�k��,4.0,��
2016/10/04,13:20,0.385,0.235,0.412,0.372,0.361,0.192,0.165,�k��,4.8,��
2016/10/04,13:30,0.384,0.236,0.414,0.373,0.361,0.193,0.163,���k��,4.2,��
2016/10/04,13:40,0.390,0.235,0.413,0.373,0.361,0.192,0.164,�k��,2.6,��
2016/10/04,13:50,0.391,0.236,0.409,0.374,0.361,0.193,0.164,�k��,3.9,��
2016/10/04,14:00,0.389,0.236,0.407,0.371,0.360,0.193,0.164,�k��,5.4,��
2016/10/04,14:10,0.386,0.237,0.407,0.373,0.361,0.193,0.164,�k��,4.2,��
2016/10/04,14:20,0.385,0.234,0.405,0.379,0.361,0.193,0.164,�k��,2.8,��
2016/10/04,14:30,0.385,0.235,0.405,0.378,0.359,0.193,0.163,�k��,2.1,��
2016/10/04,14:40,0.387,0.235,0.413,0.376,0.361,0.193,0.164,���k��,2.4,��
2016/10/04,14:50,0.390,0.235,0.413,0.375,0.362,0.193,0.164,�k��,2.8,��
2016/10/04,15:00,0.390,0.237,0.408,0.373,0.363,0.191,0.164,���k��,3.9,��
2016/10/04,15:10,0.387,0.238,0.407,0.375,0.367,0.192,0.165,���k��,5.3,��
2016/10/04,15:20,0.384,0.237,0.405,0.380,0.367,0.193,0.165,���k��,5.2,��
2016/10/04,15:30,0.388,0.235,0.409,0.377,0.363,0.192,0.165,���k��,6.1,��
2016/10/04,15:40,0.390,0.235,0.413,0.377,0.361,0.192,0.164,�k��,6.7,��
2016/10/04,15:50,0.390,0.237,0.410,0.373,0.360,0.193,0.163,�k�k��,4.5,��
2016/10/04,16:00,0.387,0.237,0.406,0.378,0.361,0.193,0.165,�k��,6.7,��
2016/10/04,16:10,0.383,0.236,0.407,0.378,0.367,0.194,0.164,�k��,6.7,��
2016/10/04,16:20,0.390,0.235,0.413,0.375,0.364,0.193,0.165,�k��,5.7,��
2016/10/04,16:30,0.391,0.237,0.411,0.374,0.363,0.193,0.164,�k��,4.2,��
2016/10/04,16:40,0.388,0.237,0.408,0.380,0.363,0.193,0.165,���k��,6.7,��
2016/10/04,16:50,0.384,0.236,0.409,0.377,0.367,0.194,0.165,�k��,7.0,��
2016/10/04,17:00,0.390,0.238,0.414,0.374,0.363,0.192,0.164,���k��,7.3,��
2016/10/04,17:10,0.390,0.238,0.410,0.379,0.363,0.193,0.165,���k��,8.7,��
2016/10/04,17:20,0.386,0.234,0.408,0.377,0.366,0.194,0.166,�k��,9.5,��
2016/10/04,17:30,0.390,0.238,0.413,0.374,0.362,0.193,0.164,�k��,9.8,��
2016/10/04,17:40,0.390,0.237,0.411,0.379,0.364,0.193,0.166,�k��,7.4,��
2016/10/04,17:50,0.386,0.236,0.411,0.377,0.367,0.194,0.165,�k�k��,6.6,��
2016/10/04,18:00,0.388,0.239,0.412,0.374,0.361,0.193,0.165,�k�k��,5.5,��
2016/10/04,18:10,0.391,0.237,0.411,0.379,0.367,0.195,0.167,�k,5.9,��
2016/10/04,18:20,0.388,0.238,0.410,0.376,0.363,0.193,0.165,�k�k��,5.6,��
2016/10/04,18:30,0.389,0.239,0.413,0.375,0.364,0.193,0.165,�k��,6.4,��
2016/10/04,18:40,0.390,0.237,0.408,0.378,0.367,0.192,0.164,���k��,8.2,��
2016/10/04,18:50,0.387,0.238,0.411,0.374,0.362,0.193,0.166,���k��,8.1,��
2016/10/04,19:00,0.388,0.237,0.411,0.380,0.365,0.192,0.165,���k��,8.1,��
2016/10/04,19:10,0.390,0.237,0.408,0.377,0.365,0.193,0.164,�k��,7.8,��
2016/10/04,19:20,0.388,0.239,0.412,0.377,0.362,0.193,0.166,���k��,8.5,��
2016/10/04,19:30,0.392,0.235,0.409,0.380,0.367,0.193,0.165,���k��,8.6,��
2016/10/04,19:40,0.389,0.238,0.410,0.375,0.363,0.195,0.166,���k��,8.9,��
2016/10/04,19:50,0.389,0.238,0.413,0.380,0.367,0.193,0.166,���k��,10.0,��
2016/10/04,20:00,0.391,0.236,0.409,0.376,0.364,0.193,0.165,���k��,10.0,��
2016/10/04,20:10,0.390,0.238,0.413,0.376,0.364,0.193,0.166,���k��,9.2,��
2016/10/04,20:20,0.389,0.236,0.413,0.380,0.366,0.193,0.165,���k��,9.5,��
2016/10/04,20:30,0.392,0.238,0.409,0.375,0.361,0.193,0.167,���k��,10.1,��
2016/10/04,20:40,0.388,0.237,0.415,0.379,0.367,0.192,0.166,���k��,9.5,��
2016/10/04,20:50,0.390,0.237,0.409,0.379,0.363,0.193,0.165,���k��,10.2,��
2016/10/04,21:00,0.391,0.239,0.410,0.377,0.364,0.194,0.166,���k��,9.5,��
2016/10/04,21:10,0.387,0.236,0.413,0.379,0.365,0.192,0.166,���k��,10.8,��
2016/10/04,21:20,0.391,0.239,0.407,0.376,0.363,0.194,0.167,�k��,8.5,��
2016/10/04,21:30,0.390,0.237,0.414,0.380,0.366,0.192,0.166,�k��,8.9,��
2016/10/04,21:40,0.389,0.237,0.412,0.377,0.363,0.192,0.166,�k��,7.2,��
2016/10/04,21:50,0.392,0.238,0.410,0.378,0.367,0.192,0.165,���k��,7.3,��
2016/10/04,22:00,0.389,0.237,0.413,0.379,0.363,0.194,0.166,�k��,6.1,��
2016/10/04,22:10,0.391,0.239,0.409,0.376,0.366,0.195,0.166,���k��,7.6,��
2016/10/04,22:20,0.390,0.237,0.412,0.380,0.364,0.194,0.166,�k��,6.2,��
2016/10/04,22:30,0.391,0.238,0.410,0.376,0.365,0.193,0.166,�k��,5.7,��
2016/10/04,22:40,0.390,0.237,0.412,0.379,0.364,0.193,0.166,���k��,3.2,��
2016/10/04,22:50,0.391,0.239,0.413,0.377,0.362,0.194,0.166,��,2.9,��
2016/10/04,23:00,0.391,0.237,0.410,0.379,0.365,0.194,0.166,��,1.5,��
2016/10/04,23:10,0.388,0.238,0.413,0.377,0.364,0.195,0.166,��,1.8,��
2016/10/04,23:20,0.390,0.237,0.411,0.378,0.364,0.193,0.167,��,2.2,��
2016/10/04,23:30,0.389,0.238,0.414,0.379,0.363,0.193,0.166,��,4.4,��
2016/10/04,23:40,0.392,0.237,0.410,0.377,0.366,0.193,0.166,��,3.9,��
2016/10/04,23:50,0.389,0.237,0.414,0.378,0.363,0.195,0.166,�k�k��,1.2,��
